Delta, CO

1:23 PM MDT on August 29, 2016 (GMT -0600)
Delta

Weather History for KAJZ - August, 2012

Change the Weather History Date:

Wednesday, August 1, 2012

  Actual Average (KMTJ) Record (KMTJ)
Temperature  
Mean Temperature 78 °F 73 °F  
Max Temperature 91 °F 89 °F 100 °F (2008)
Min Temperature 65 °F 58 °F 54 °F (1999)
Degree Days  
Heating Degree Days 0 0  
Month to date heating degree days 0  
Since 1 June heating degree days 39  
Since 1 July heating degree days 0  
Cooling Degree Days 13 8  
Month to date cooling degree days 8  
Year to date cooling degree days 430  
Since 1 June cooling degree days 413  
Growing Degree Days 28 (Base 50)    
Moisture  
Dew Point 53 °F    
Average Humidity 45    
Maximum Humidity 79    
Minimum Humidity 21    
Precipitation  
Precipitation 0.11 in 0.03 in 0.29 in (2013)
Month to date precipitation 0.03  
Year to date precipitation 6.10  
Sea Level Pressure  
Sea Level Pressure 30.22 in    
Wind  
Wind Speed 5 mph ()    
Max Wind Speed 23 mph    
Max Gust Speed 28 mph    
Visibility 7.9 miles    
Events Thunderstorm    
T = Trace of Precipitation, MM = Missing Value Source: Averaged Metar Reports

Daily Weather History Graph

Daily Weather History Graph

Search for Another Location

Airport or City:

Trip Planner

Search our weather history database for the weather conditions in past years. The results will help you decide how hot, cold, wet, or windy it might be!

Date:

Astronomy

Aug. 01, 2012 Rise Set
Actual Time 6:13 AM MDT 8:22 PM MDT
Civil Twilight 5:44 AM MDT 8:52 PM MDT
Nautical Twilight 5:08 AM MDT 9:28 PM MDT
Astronomical Twilight 4:28 AM MDT 10:07 PM MDT
Moon 7:55 PM MDT (8/1) 5:46 AM MDT (8/1)
Length of Visible Light 15h 07m
Length of Day
14h 08m
Full, 100% of the Moon is Illuminated
Aug 1
Full
Aug 1
Full
Aug 9
Last Quarter
Aug 17
New
Aug 24
First Quarter

Hourly Weather History & Observations

Time (MDT) Temp. Dew Point Humidity Pressure Visibility Wind Dir Wind Speed Gust Speed Precip Events Conditions
12:15 AM 69.8 °F 56.3 °F 62% 30.28 in 10.0 mi East 4.6 mph - N/A   Clear
12:35 AM 70.5 °F 56.3 °F 61% 30.29 in 10.0 mi Calm Calm - N/A   Clear
12:55 AM 69.4 °F 57.2 °F 65% 30.30 in 10.0 mi Calm Calm - N/A   Clear
1:35 AM 69.6 °F 57.0 °F 64% 30.31 in 10.0 mi Calm Calm - N/A   Mostly Cloudy
2:15 AM 69.8 °F 59.0 °F 68% 30.31 in 10.0 mi NNE 3.5 mph - N/A   Overcast
3:35 AM 68.9 °F 57.7 °F 68% 30.27 in 7.0 mi NNE 5.8 mph - N/A   Clear
3:55 AM 67.6 °F 58.3 °F 72% 30.28 in 10.0 mi SE 4.6 mph - N/A   Scattered Clouds
4:15 AM 67.1 °F 58.1 °F 73% 30.28 in 7.0 mi SE 4.6 mph - N/A   Clear
5:15 AM 65.5 °F 56.5 °F 73% 30.26 in 7.0 mi NE 8.1 mph - N/A   Clear
5:35 AM 66.7 °F 55.9 °F 68% 30.26 in 10.0 mi ENE 5.8 mph - N/A   Clear
5:55 AM 67.3 °F 56.1 °F 67% 30.25 in 7.0 mi ENE 8.1 mph - N/A   Clear
6:15 AM 66.2 °F 55.2 °F 68% 30.25 in 7.0 mi NE 6.9 mph - N/A   Clear
6:35 AM 66.7 °F 54.3 °F 64% 30.26 in 7.0 mi SE 3.5 mph - N/A   Clear
7:15 AM 65.3 °F 55.4 °F 70% 30.26 in 7.0 mi Calm Calm - N/A   Clear
7:35 AM 67.5 °F 55.4 °F 65% 30.26 in 10.0 mi NNW 3.5 mph - N/A   Clear
7:55 AM 68.9 °F 54.5 °F 60% 30.26 in 7.0 mi Calm Calm - N/A   Clear
8:15 AM 70.7 °F 54.1 °F 56% 30.27 in 7.0 mi ESE 4.6 mph - N/A   Clear
8:35 AM 70.2 °F 55.2 °F 59% 30.27 in 10.0 mi East 4.6 mph - N/A   Clear
8:55 AM 71.2 °F 56.3 °F 59% 30.27 in 7.0 mi ENE 3.5 mph - N/A   Clear
9:15 AM 71.1 °F 56.8 °F 61% 30.27 in 5.0 mi ESE 3.5 mph - N/A   Clear
9:35 AM 72.5 °F 57.4 °F 59% 30.27 in 7.0 mi Calm Calm - N/A   Clear
9:55 AM 74.7 °F 55.6 °F 51% 30.27 in 7.0 mi Calm Calm - N/A   Clear
10:15 AM 77.5 °F 52.0 °F 41% 30.26 in 7.0 mi South 3.5 mph - N/A   Clear
10:35 AM 78.6 °F 53.6 °F 42% 30.26 in 7.0 mi SE 3.5 mph - N/A   Clear
10:55 AM 79.5 °F 53.4 °F 40% 30.26 in 10.0 mi Calm Calm - N/A   Clear
11:15 AM 81.7 °F 51.6 °F 35% 30.25 in 7.0 mi Calm Calm - N/A   Clear
11:35 AM 82.9 °F 51.6 °F 34% 30.25 in 7.0 mi WSW 3.5 mph - N/A   Clear
11:55 AM 83.8 °F 48.6 °F 29% 30.24 in 7.0 mi SSE 3.5 mph - N/A   Clear
12:15 PM 84.2 °F 50.5 °F 31% 30.23 in 10.0 mi SSW 5.8 mph - N/A   Clear
12:35 PM 85.8 °F 49.5 °F 28% 30.23 in 7.0 mi South 6.9 mph - N/A   Clear
12:55 PM 86.7 °F 48.6 °F 27% 30.22 in 7.0 mi SW 8.1 mph - N/A   Clear
1:15 PM 88.3 °F 48.4 °F 25% 30.21 in 7.0 mi SSW 6.9 mph - N/A   Clear
1:35 PM 90.9 °F 48.9 °F 24% 30.20 in 10.0 mi SSW 6.9 mph - N/A   Clear
1:55 PM 90.1 °F 47.1 °F 23% 30.19 in 7.0 mi WSW 13.8 mph 20.7 mph N/A   Scattered Clouds
2:15 PM 89.1 °F 46.4 °F 23% 30.19 in 7.0 mi WSW 10.4 mph 20.7 mph N/A   Scattered Clouds
2:35 PM 91.6 °F 46.2 °F 21% 30.18 in 10.0 mi SSW 10.4 mph 19.6 mph N/A   Scattered Clouds
2:55 PM 90.7 °F 47.5 °F 23% 30.17 in 10.0 mi NW 5.8 mph 18.4 mph N/A   Scattered Clouds
3:15 PM 91.6 °F 46.2 °F 21% 30.16 in 7.0 mi West 12.7 mph 17.3 mph N/A   Scattered Clouds
3:35 PM 91.4 °F 46.6 °F 21% 30.16 in 7.0 mi WNW 9.2 mph 17.3 mph N/A   Clear
3:55 PM 90.9 °F 46.2 °F 21% 30.15 in 10.0 mi West 10.4 mph 17.3 mph N/A   Clear
4:15 PM 90.7 °F 46.2 °F 21% 30.15 in 10.0 mi WNW 12.7 mph 20.7 mph N/A   Clear
4:35 PM 90.7 °F 47.7 °F 23% 30.15 in 7.0 mi West 15.0 mph 20.7 mph N/A   Scattered Clouds
4:55 PM 89.8 °F 47.3 °F 23% 30.15 in 7.0 mi NW 11.5 mph 23.0 mph N/A   Scattered Clouds
5:15 PM 89.1 °F 46.8 °F 23% 30.15 in 7.0 mi West 10.4 mph 17.3 mph N/A   Clear
5:35 PM 88.2 °F 46.4 °F 23% 30.14 in 7.0 mi WNW 10.4 mph - N/A Thunderstorm Mostly Cloudy
5:55 PM 87.1 °F 46.8 °F 25% 30.15 in 7.0 mi West 23.0 mph 27.6 mph N/A Thunderstorm Mostly Cloudy
6:15 PM 84.0 °F 47.7 °F 28% 30.15 in 5.0 mi West 16.1 mph 25.3 mph N/A Thunderstorm Mostly Cloudy
6:35 PM 84.0 °F 46.4 °F 27% 30.14 in 10.0 mi NNW 8.1 mph - N/A Thunderstorm Mostly Cloudy
6:55 PM 86.5 °F 44.6 °F 23% 30.13 in 7.0 mi WNW 3.5 mph - N/A   Clear
7:15 PM 86.9 °F 45.9 °F 24% 30.13 in 7.0 mi WNW 3.5 mph - N/A Thunderstorm Scattered Clouds
7:35 PM 84.0 °F 48.4 °F 29% 30.14 in 10.0 mi SSE 5.8 mph - N/A   Mostly Cloudy
8:35 PM 81.5 °F 52.3 °F 36% 30.16 in 7.0 mi Calm Calm - N/A   Overcast
8:55 PM 79.9 °F 56.3 °F 44% 30.17 in 10.0 mi ESE 5.8 mph - N/A Thunderstorm Overcast
9:15 PM 79.0 °F 55.0 °F 44% 30.17 in 10.0 mi SE 10.4 mph - N/A   Mostly Cloudy
9:35 PM 78.1 °F 54.7 °F 44% 30.19 in 10.0 mi ESE 8.1 mph - N/A   Mostly Cloudy
9:55 PM 77.0 °F 56.5 °F 49% 30.20 in 10.0 mi ENE 9.2 mph - N/A Thunderstorm Thunderstorm
10:15 PM 77.0 °F 55.9 °F 48% 30.22 in 7.0 mi ESE 10.4 mph - N/A Thunderstorm Overcast
10:35 PM 71.6 °F 61.0 °F 69% 30.22 in 7.0 mi East 11.5 mph - N/A Thunderstorm Overcast
11:15 PM 68.2 °F 61.3 °F 79% 30.22 in 2.0 mi NE 13.8 mph - 0.11 in   Overcast
11:35 PM 68.9 °F 61.3 °F 77% 30.23 in 7.0 mi NNE 12.7 mph - 0.11 in   Mostly Cloudy
11:55 PM 69.6 °F 60.6 °F 73% 30.23 in 7.0 mi ENE 16.1 mph - 0.11 in   Mostly Cloudy